Regional Weather Roundup
Issued by NWS

Home | Current Version | Previous Version | Graphics & Text | Print | Product List | Glossary On
Versions: 1 2 3 4 5 6 7 8 9 10 11 12 13 14 15 16 17 18 19 20 21 22 23 24 25 26 27 28 29 30 31 32 33 34 35 36 37 38 39 40 41 42 43 44 45 46 47 48 49 50
000
ASUS44 KMEG 181900
RWRTN
TENNESSEE HOURLY STATE WEATHER ROUNDUP
NATIONAL WEATHER SERVICE MEMPHIS TN
200 PM CDT SAT APR 18 2015

TNZ002-004-019-021-049-052-054-088>092-182000-
WEST TENNESSEE

CITY           SKY/WX    TMP DP  RH WIND       PRES   REMARKS
MEMPHIS INTL   CLOUDY    73  61  65 SE9       29.91F
NWS MEMPHIS      N/A     76 N/A N/A MISG        N/A
JACKSON        PTSUNNY   76  61  59 E12       29.91F
DYERSBURG      MOSUNNY   75  54  46 E9        29.92F
UNION CITY     MOSUNNY   77  32  19 VRB5      29.92F
PARIS          MOSUNNY   75  59  57 VRB3      29.95F
LEXINGTON      MOSUNNY   77  61  57 VRB6      29.92F
SAVANNAH       PTSUNNY   75  32  20 S3        29.93F
$$

TNZ008-025-027-028-033-062-065-066-182000-
NORTH MIDDLE TENNESSEE

CITY           SKY/WX    TMP DP  RH WIND       PRES   REMARKS
NASHVILLE      CLOUDY    80  61  52 N8        29.95F
CLARKSVILLE    PTSUNNY   77  59  53 E5        29.96F
COOKEVILLE     MOSUNNY   79  61  53 SE7       29.94F
CROSSVILLE     CLOUDY    74  54  49 NE10      29.98F
$$

TNZ061-075-076-078-094-096-097-182000-
SOUTH MIDDLE TENNESSEE

CITY           SKY/WX    TMP DP  RH WIND       PRES   REMARKS
FAYETTEVILLE   MOSUNNY   73  59  60 VRB5      29.94F
TULLAHOMA      MOSUNNY   75  55  50 CALM      29.94F
WINCHESTER     MOSUNNY   77  57  50 SE6       29.93F
MCMINNVILLE    SUNNY     77  63  61 VRB5      29.94F
COLUMBIA       MOSUNNY   79  32  18 E6        29.93F
SHELBYVILLE    MOSUNNY   79  63  57 CALM      29.94F
$$

TNZ017-018-042-046-047-182000-
NORTHEAST TENNESSEE

CITY           SKY/WX    TMP DP  RH WIND       PRES   REMARKS
TRI CITIES     CLOUDY    79  52  38 E5        29.97F
ELIZABETHTON   MOCLDY    75  54  46 S3        29.98S
$$

TNZ012-013-036-069-073-074-182000-
CENTRAL EAST TENNESSEE

CITY           SKY/WX    TMP DP  RH WIND       PRES   REMARKS
KNOXVILLE      CLOUDY    77  60  55 N8        29.93F
OAK RIDGE      CLOUDY    79  56  45 CALM      29.95F
GATLINBURG     PTCLDY    73  59  60 NE5       29.94F
$$

TNZ083-085-099-182000-
SOUTHEAST TENNESSEE

CITY           SKY/WX    TMP DP  RH WIND       PRES   REMARKS
CHATTANOOGA    CLOUDY    77  63  61 NW6       29.94F
$$

SKY/WX REPORTED AS FAIR MEANS FEW OR NO CLOUDS BELOW
12 THOUSAND FEET.




USA.gov is the U.S. government's official web portal to all federal, state and local government web resources and services.